COSMOS 1408 DEB, 50058

Orbit data source: Space-Track

COSMOS 1408 DEB, 50058 is space debris in LEO originally from a launch on Thu, 16 Sep 1982 UTC launched from the Plesetsk Missile And Space Complex (PKMTR). Cosmos 1408 debris is a result of deliberate destruction of the defunct Soviet-era reconnaissance satellite Cosmos 1408 by a Russian anti-satellite missile in 2021. This event added many debris pieces to Earth's orbit, complicating space navigation and increasing collision risks for operational satellites and the International Space Station. The Cosmos 1408 debris has heightened concerns about space safety and militarization, emphasizing the urgent need for comprehensive space debris management strategies.

Loading next visibility...
Identifier
50058, 1982-092SW
Orbit
LEO
Country
Flag of CISCIS
Related business
Manufacturer
Yuzhnoe
Mission
Spacecraft
Bus & Motor
Unknown
Mass
Unknown
Launch date (UTC)
1982-09-16 (44 years ago)
Launch vehicle
Unknown
Launch site
Plesetsk Missile And Space Complex (PKMTR)
Object type
Payload
Rocket body
Debris
Shape & HBR
Unknown shape, 0.1 m
Radar Cross Section
Medium (>0.1 m² and <1 m²)

Expand to show TLE details & history
Last TLE update: 2 days ago

TLE from 2 days ago
0 COSMOS 1408 DEB
1 50058U 82092SW  26171.22199896  .00061070  00000-0  29959-3 0  9993
2 50058  82.6070 228.5433 0010925 112.0595 248.1835 15.81918609257812
Epoch: 2026-06-20T05:19Z
TLE epoch observation values (Epoch: 2026-06-20T05:19:40.710Z)
Latitude
Longitude
-119.81605°
Altitude
330.919 km
Speed
7.708 km/s
True Right ascension
15h 14m 10s
True Declination
0° 00' 00"
Sunlit
Object was in full shadow at epoch
Visualization orbit readout
Latitude
Unknown
Longitude
Unknown
Altitude
Unknown
Speed
Unknown
Apparent Right ascension
Unknown
Apparent Declination
Unknown
Sunlit
N/A
Visualization observer readout
Local Sidereal Time
21:43:24
Azimuth
Unknown
Elevation
Unknown
Doppler factor
Unknown
Orbital elements
Apogee altitude
329.218 km
Perigee altitude
314.579 km
Semi-major axis
6,700.036 km
Eccentricity
0.00109
Inclination
82.607°
RAAN
228.5433°
Arg. of periapsis
112.0595°
True anomaly
248.06733°
Mean anomaly
248.1835°
Eccentric anomaly
248.12541°
Mean motion
3.95756 °/min
Orbital period
90.97 mins
BSTAR
0.00029959

Documentation

Showing up to 5 results
|